Wind_Speed
8 6 4 8 12 15 15 13 13 15 22 26 24 23 23 29 33 33 35 36 37 38 39 39 38 37 40 40 39 38 37 37 37 36 34 34 33 31 30 30 27 26 25 24
5 7 9 11 11 11 10 12 13 15 20 25 28 26 24 29 33 34 36 33 35 39 38 38 38 38 38 39 38 37 38 39 38 37 36 35 34 33 32 30 28 26 25 24
4 8 9 7 6 5 7 9 13 16 19 19 19 19 19 25 30 31 31 33 32 33 35 36 35 35 37 37 36 37 39 39 38 37 36 35 34 33 32 29 27 26 25 25
4 8 8 6 6 6 8 13 15 16 17 18 17 19 20 25 30 31 30 27 26 29 31 32 33 35 36 36 37 39 38 38 37 37 37 34 33 33 33 30 28 27 27 26
4 7 8 7 9 10 12 14 14 13 15 14 15 18 20 25 28 29 26 26 28 28 31 32 33 33 34 36 37 37 37 36 37 36 36 35 34 34 32 31 29 28 28 28
3 6 7 7 9 10 10 9 8 11 15 17 18 18 21 25 25 26 28 30 32 31 31 30 31 32 33 34 35 35 35 36 37 38 37 36 36 35 35 33 32 30 30 30
3 4 6 8 8 10 11 10 12 16 20 19 14 12 18 21 23 25 28 29 30 30 30 30 31 32 33 34 36 37 38 38 39 40 39 39 38 38 38 37 36 34 34 34
8 5 4 8 10 11 10 9 12 16 17 21 20 16 22 20 20 23 25 26 29 30 31 32 33 34 35 37 39 40 42 43 43 44 44 44 43 42 42 41 40 39 38 38
6 5 7 10 10 9 9 7 9 14 14 13 16 25 25 24 23 23 24 29 32 34 35 37 39 40 41 43 44 46 47 48 49 49 50 50 50 49 48 47 46 45 44 43
7 7 6 8 8 10 12 12 13 14 15 15 16 27 33 33 32 29 31 33 36 38 40 42 43 44 45 47 49 50 52 53 54 55 56 56 56 56 55 54 53 52 50 48
8 7 6 8 9 10 12 13 15 17 18 20 22 27 32 34 33 34 37 39 40 43 45 47 48 49 50 51 53 54 55 56 58 59 60 60 61 61 61 60 59 58 56 54
8 9 8 8 12 12 12 16 19 20 21 21 23 30 32 34 36 38 41 43 46 48 49 51 52 53 54 55 56 57 58 59 60 61 62 63 64 65 65 65 64 63 62 60
10 10 9 11 15 17 18 19 21 23 24 25 27 32 35 37 39 42 45 47 50 52 53 54 56 57 58 59 60 61 61 62 63 64 64 65 66 67 67 68 68 68 67 66
11 12 12 12 12 15 18 18 20 24 27 28 30 36 40 41 43 46 49 51 53 56 57 58 59 60 62 63 63 64 64 65 66 67 68 68 69 69 70 70 70 71 71 70
12 13 13 13 13 14 16 18 21 25 28 31 34 38 43 44 47 50 53 55 58 60 61 62 64 65 66 67 67 67 68 69 70 70 71 71 72 72 73 73 74 74 74 74
14 14 14 14 14 15 18 19 23 28 32 35 37 41 44 47 50 53 56 59 61 63 65 67 68 69 69 70 70 70 70 69 68 67 66 65 66 67 68 69 71 72 73 74
14 15 16 16 15 18 21 24 28 32 36 39 42 45 48 51 53 55 58 62 65 67 68 69 70 71 71 71 70 68 65 61 58 55 53 53 53 53 54 56 58 60 63 65
14 16 18 19 20 21 24 27 31 34 39 42 44 47 50 53 55 57 61 65 67 69 70 70 70 70 68 64 60 56 52 49 47 44 43 42 41 40 40 41 42 44 46 49
16 18 20 22 22 27 30 31 35 39 43 44 47 51 54 57 59 60 63 66 68 69 69 67 65 62 56 51 47 44 41 39 38 37 36 35 35 34 33 33 33 35 36 37
21 23 24 26 27 31 34 36 39 42 47 50 53 56 59 61 63 64 66 68 69 67 64 61 56 51 47 43 41 38 36 36 36 36 35 34 33 32 31 30 30 30 31 31
21 24 26 28 30 35 36 40 42 44 48 51 54 57 60 62 65 67 68 67 65 61 57 53 49 46 43 41 39 38 37 37 37 37 35 34 33 32 31 30 29 29 29 29
21 25 28 30 32 36 39 41 44 46 50 54 57 60 63 65 67 68 66 63 59 55 51 48 46 44 42 41 40 40 39 39 38 37 36 35 34 33 32 30 29 28 28 27
23 25 29 31 34 36 40 43 47 50 54 57 60 63 66 68 68 66 62 58 54 51 48 46 46 45 44 44 43 42 41 40 40 38 37 36 35 34 32 30 29 27 26 26
28 27 30 33 36 39 44 47 50 53 57 59 62 65 68 69 66 62 58 55 52 49 48 48 48 47 46 45 43 43 42 42 41 40 38 36 35 33 31 30 28 27 25 24
27 30 33 36 39 42 46 49 52 55 58 61 64 67 68 67 63 59 56 53 51 50 49 49 49 48 46 45 44 43 43 42 41 39 37 35 34 32 30 29 27 26 24 22
29 32 35 38 42 45 48 50 54 57 60 62 65 67 67 64 60 57 54 52 51 50 50 50 49 49 48 47 46 45 44 42 41 39 36 33 32 30 28 26 25 24 23 21
Wind_Direction
300 301 293 264 257 250 246 240 240 237 239 245 251 256 253 257 263 266 270 272 274 275 274 278 277 280 282 282 283 285 287 289 289 291 292 293 293 293 292 290 286 284 283 282
306 277 272 273 270 262 255 247 242 246 250 254 257 259 261 262 267 269 270 270 275 277 277 277 276 279 280 281 279 281 284 286 288 290 292 291 291 291 290 288 284 280 279 279
278 276 291 303 297 283 267 254 249 249 253 265 276 274 266 265 268 270 271 274 276 276 277 280 278 279 278 278 278 281 283 284 286 288 288 288 289 290 288 286 282 278 277 277
254 290 304 299 287 277 268 251 253 257 265 267 268 270 263 263 266 267 268 277 283 283 282 282 281 279 276 277 277 277 279 281 285 288 288 289 289 290 289 286 280 277 275 274
263 291 304 295 279 280 272 266 268 272 273 267 260 262 266 265 268 276 285 289 295 294 290 286 285 284 281 282 281 281 283 284 285 286 287 288 289 289 289 285 280 278 276 275
313 310 303 299 294 295 298 291 280 282 279 264 256 250 255 262 273 283 288 294 296 294 291 289 286 285 285 286 284 284 285 285 286 285 284 284 286 287 286 284 281 279 277 275
310 274 292 313 315 295 293 292 295 300 304 298 284 262 258 269 281 285 290 294 294 294 292 290 288 287 285 286 286 286 286 285 284 284 284 285 284 284 284 282 280 278 277 276
305 307 325 317 310 304 300 294 300 304 309 317 319 300 280 271 274 281 289 296 298 296 294 292 291 289 287 287 287 285 286 286 285 284 283 283 282 282 281 280 277 275 274 274
298 310 308 310 320 324 325 312 295 299 302 303 303 294 287 289 288 285 292 297 299 298 296 295 293 292 290 288 287 285 284 284 283 283 282 282 282 281 279 278 277 275 272 271
303 293 279 303 326 322 321 321 318 312 308 303 302 301 301 306 303 300 301 301 300 298 295 294 292 290 289 287 286 284 283 283 282 282 281 281 280 279 278 277 275 274 273 271
302 307 306 300 296 295 304 311 307 304 304 301 300 296 296 300 300 300 300 300 299 297 295 294 292 291 289 287 286 284 283 282 281 280 279 278 278 277 276 275 274 273 271 270
307 314 316 306 293 290 307 316 315 312 310 305 304 295 297 296 296 298 299 299 298 296 295 294 293 292 291 289 288 286 284 283 281 280 279 277 276 275 274 273 272 271 270 269
314 317 315 311 313 324 326 320 313 308 307 307 304 296 297 297 299 299 298 298 298 297 297 296 296 295 294 292 290 288 286 284 282 280 279 278 276 275 274 273 272 271 269 268
310 312 311 310 307 307 307 306 301 300 300 301 301 298 300 302 302 302 302 301 301 300 300 299 299 297 295 293 291 289 287 285 283 281 279 278 276 274 273 272 271 270 269 268
312 312 311 311 309 303 299 300 299 300 302 303 304 302 304 306 305 305 305 305 303 303 303 302 300 298 297 295 293 291 289 287 285 283 281 278 276 274 273 271 270 269 268 267
317 318 316 315 312 308 302 303 306 307 306 306 307 307 308 308 308 308 308 306 305 305 305 303 302 301 299 297 295 294 292 290 288 286 284 282 279 277 275 273 271 269 267 267
323 326 326 324 320 314 307 313 310 309 310 311 313 312 310 310 310 311 310 308 308 307 306 305 304 303 301 300 298 297 296 294 292 290 288 286 284 282 280 277 275 272 269 266
329 329 329 329 327 314 316 317 314 314 313 314 314 313 313 314 314 314 312 311 310 310 308 307 305 304 303 302 301 300 299 298 296 294 293 291 289 288 286 284 280 276 273 269
333 332 331 331 329 317 321 322 318 318 316 318 318 318 318 317 317 316 314 313 312 310 309 308 308 308 307 306 305 303 303 302 301 299 297 295 293 292 291 289 286 282 278 275
334 333 332 331 328 319 325 323 323 323 322 324 323 322 320 319 318 318 317 315 314 313 312 312 312 311 310 309 307 305 304 304 303 300 299 297 294 292 291 291 289 286 283 281
326 327 329 329 326 322 328 324 325 324 322 322 321 321 321 321 321 320 319 318 317 316 315 314 313 313 311 309 306 305 304 304 302 301 298 296 293 291 290 290 289 287 285 283
326 328 328 329 327 326 326 324 324 324 324 324 324 324 324 324 324 323 322 321 319 318 317 315 314 313 311 308 305 304 304 302 301 299 297 294 292 290 287 286 285 285 284 282
330 330 328 329 327 326 325 326 327 327 327 327 327 327 327 327 326 325 324 323 321 319 317 316 314 313 311 308 306 303 302 301 299 297 295 292 289 287 284 282 281 281 281 279
327 330 328 328 329 330 329 329 329 329 329 329 329 329 329 328 328 327 327 326 324 321 319 317 315 313 311 309 306 303 302 300 298 296 293 290 287 283 280 278 277 276 276 275
324 326 329 330 331 331 330 328 328 329 330 330 331 331 331 331 331 330 329 328 325 323 320 318 317 315 313 310 307 304 301 299 296 295 292 289 286 281 277 274 273 271 269 267
326 329 330 330 330 329 329 329 330 331 332 332 333 333 333 333 333 332 331 329 327 325 323 321 319 317 314 311 308 304 300 298 295 293 290 288 284 280 274 269 267 264 261 259
Height
5872 5873 5874 5875 5874 5875 5876 5878 5880 5881 5878 5877 5877 5878 5878 5876 5872 5872 5870 5867 5866 5865 5863 5863 5861 5859 5858 5857 5855 5854 5853 5852 5850 5849 5847 5847 5845 5844 5842 5841 5840 5839 5838 5837
5872 5872 5871 5871 5870 5871 5872 5874 5875 5875 5873 5872 5872 5873 5873 5870 5867 5866 5862 5860 5859 5856 5854 5854 5850 5851 5850 5847 5845 5844 5845 5844 5842 5841 5839 5839 5837 5836 5836 5835 5834 5833 5832 5831
5871 5870 5869 5869 5869 5869 5870 5870 5870 5869 5867 5867 5867 5867 5867 5864 5861 5858 5855 5854 5850 5849 5848 5845 5841 5842 5842 5839 5836 5835 5837 5836 5835 5833 5831 5831 5830 5829 5828 5828 5827 5826 5825 5825
5869 5868 5867 5867 5867 5867 5866 5865 5864 5864 5864 5864 5864 5863 5861 5857 5854 5851 5847 5845 5844 5842 5841 5840 5836 5835 5833 5831 5828 5830 5828 5828 5827 5826 5825 5824 5823 5822 5821 5820 5820 5819 5819 5818
5867 5867 5866 5866 5865 5864 5863 5861 5861 5860 5859 5858 5859 5857 5856 5851 5848 5846 5842 5842 5839 5838 5838 5836 5832 5829 5824 5824 5823 5823 5820 5820 5820 5819 5817 5816 5815 5815 5814 5813 5812 5812 5811 5811
5865 5865 5864 5864 5863 5861 5860 5859 5858 5856 5854 5853 5851 5851 5849 5845 5844 5843 5841 5839 5837 5834 5833 5830 5827 5824 5821 5818 5816 5816 5815 5814 5812 5811 5809 5808 5807 5806 5805 5804 5804 5803 5803 5803
5863 5863 5863 5862 5862 5860 5859 5858 5856 5853 5849 5845 5843 5844 5845 5843 5842 5839 5838 5836 5833 5831 5828 5825 5822 5819 5817 5814 5811 5809 5807 5806 5804 5801 5799 5799 5798 5797 5796 5795 5794 5794 5794 5794
5861 5860 5860 5861 5860 5858 5857 5856 5855 5852 5849 5846 5842 5841 5840 5835 5833 5834 5833 5831 5829 5826 5822 5819 5816 5813 5810 5807 5805 5801 5799 5796 5794 5792 5790 5788 5787 5787 5786 5785 5784 5784 5783 5783
5861 5861 5861 5860 5858 5857 5856 5854 5853 5851 5849 5848 5845 5839 5832 5829 5827 5828 5828 5826 5823 5819 5816 5812 5809 5805 5802 5799 5795 5792 5789 5786 5783 5781 5778 5777 5775 5774 5773 5773 5772 5772 5771 5771
5861 5860 5860 5859 5858 5857 5856 5853 5851 5849 5846 5844 5843 5837 5831 5827 5825 5823 5820 5818 5816 5812 5807 5803 5799 5796 5792 5788 5784 5781 5777 5774 5771 5767 5765 5763 5761 5760 5759 5758 5758 5758 5758 5757
5860 5859 5859 5857 5856 5855 5854 5852 5850 5847 5845 5842 5838 5836 5829 5825 5820 5817 5813 5811 5807 5803 5798 5793 5788 5784 5781 5776 5772 5767 5763 5760 5756 5753 5750 5747 5745 5743 5742 5741 5741 5741 5741 5742
5858 5858 5856 5855 5852 5850 5850 5849 5847 5844 5841 5838 5835 5832 5825 5820 5815 5811 5806 5802 5797 5792 5787 5782 5776 5771 5766 5762 5757 5752 5748 5744 5740 5736 5733 5731 5728 5726 5724 5723 5722 5722 5723 5724
5857 5856 5855 5854 5852 5848 5847 5845 5843 5840 5837 5834 5830 5825 5819 5814 5809 5804 5799 5793 5787 5781 5775 5769 5763 5757 5751 5746 5740 5735 5731 5726 5722 5718 5714 5712 5709 5706 5705 5704 5703 5703 5703 5705
5855 5854 5853 5852 5849 5847 5845 5843 5840 5836 5833 5829 5825 5817 5811 5807 5802 5796 5789 5783 5775 5768 5762 5755 5748 5741 5735 5728 5722 5717 5711 5706 5701 5697 5693 5690 5687 5685 5684 5683 5682 5682 5682 5683
5853 5852 5849 5848 5846 5844 5842 5840 5836 5832 5828 5823 5818 5811 5804 5799 5792 5786 5778 5770 5762 5755 5747 5739 5731 5723 5716 5708 5702 5695 5689 5683 5678 5673 5670 5666 5663 5661 5660 5659 5658 5658 5659 5660
5850 5849 5847 5844 5842 5841 5838 5835 5832 5827 5821 5817 5812 5805 5797 5790 5783 5776 5767 5757 5748 5740 5731 5722 5712 5703 5695 5686 5679 5671 5665 5658 5653 5648 5644 5640 5637 5635 5634 5633 5632 5633 5634 5635
5847 5845 5843 5841 5839 5836 5833 5830 5826 5821 5814 5809 5803 5797 5788 5781 5773 5765 5755 5743 5734 5724 5713 5703 5692 5682 5673 5664 5655 5648 5641 5635 5630 5626 5622 5618 5615 5613 5611 5609 5609 5609 5609 5610
5846 5843 5841 5838 5835 5832 5830 5824 5819 5814 5808 5802 5795 5787 5779 5770 5761 5752 5741 5728 5717 5706 5694 5683 5673 5662 5653 5643 5635 5628 5622 5617 5612 5608 5604 5601 5598 5596 5594 5592 5591 5589 5588 5588
5843 5840 5837 5834 5831 5826 5822 5819 5812 5807 5799 5793 5785 5776 5767 5757 5748 5740 5726 5713 5701 5688 5677 5665 5654 5644 5635 5627 5620 5614 5609 5604 5599 5595 5592 5589 5586 5584 5581 5579 5577 5575 5574 5573
5840 5837 5834 5830 5826 5821 5818 5811 5805 5799 5790 5781 5772 5763 5754 5744 5733 5725 5711 5698 5684 5671 5658 5647 5638 5629 5622 5615 5608 5603 5598 5593 5589 5585 5581 5578 5575 5573 5571 5569 5567 5565 5563 5561
5838 5834 5831 5827 5822 5815 5812 5804 5799 5793 5786 5776 5766 5755 5744 5732 5720 5707 5694 5681 5667 5654 5643 5633 5624 5617 5610 5603 5598 5593 5588 5583 5578 5574 5571 5568 5565 5562 5560 5559 5557 5555 5553 5552
5835 5831 5827 5822 5817 5813 5805 5798 5792 5785 5775 5765 5755 5743 5731 5719 5705 5691 5677 5664 5651 5640 5631 5621 5613 5607 5600 5593 5587 5582 5577 5572 5567 5563 5560 5557 5554 5551 5550 5549 5547 5546 5544 5543
5832 5828 5822 5818 5814 5807 5799 5791 5784 5774 5765 5754 5743 5731 5718 5704 5691 5677 5663 5651 5639 5629 5620 5611 5603 5596 5589 5582 5576 5570 5565 5559 5555 5551 5548 5545 5542 5540 5539 5538 5537 5537 5536 5535
5826 5824 5819 5813 5807 5800 5792 5783 5775 5766 5755 5744 5732 5719 5705 5691 5677 5664 5651 5639 5628 5619 5609 5601 5592 5584 5577 5570 5563 5557 5552 5546 5542 5538 5535 5533 5530 5529 5528 5528 5527 5528 5528 5528
5824 5819 5813 5807 5801 5794 5787 5777 5768 5758 5747 5735 5722 5708 5693 5678 5665 5652 5640 5629 5618 5609 5599 5590 5581 5572 5564 5557 5550 5544 5538 5533 5528 5525 5522 5520 5518 5517 5517 5517 5518 5519 5520 5520
5818 5813 5808 5802 5795 5787 5779 5770 5759 5749 5737 5725 5711 5697 5682 5667 5654 5642 5630 5619 5609 5599 5589 5579 5569 5560 5552 5543 5536 5529 5523 5518 5514 5511 5509 5507 5506 5506 5506 5507 5509 5510 5511 5513